Weather in Biên Hòa

Vietnam     10°57′45″N   106°52′07″E
В апреле 2022 года жителям России запретили посещать сайт meteo.paraplan.net по решению Генеральной прокуратуры. Аудитория сайта уменьшилась в 10 раз. Владельцы сайта не видят смысла в поддержке погодного сервера в таких условиях. Сайт будет закрыт в октябре.
temp.,
°C
wind,
m/s
gust,
m/s
humid.,
%
clouds,
%
prec.,
mm/h
press.,
hPa
HPBL,
m
6 october, thu
thu601:00+23ne2495100 4.4 1010124
04:00+23ne2295100 0.8 100947
07:00+24nne2394100 1.4 1011140
10:00+28n2278100 0.0 1012485
13:00+29sse3475100 4.4 1009563
16:00+25ssw2389100 3.8 1009105
19:00+24nnw3493100 4.6 101198
22:00+24n2496100 0.0 1012136
7 october, fri
fri701:00+23nne2495100 0.0 1010107
04:00+23ne2394100 0.0 100981
07:00+25nne238981 0.0 1011148
10:00+30n116844 0.0 1011722
13:00+32nw215968 0.0 10081450
16:00+31wsw2266100 0.1 1006777
19:00+26sse378890 1.7 1010155
22:00+25ese1190100 2.2 101123
8 october, sat
sat801:00+24nne1192100 2.3 101019
04:00+24n2294100 0.1 100949
07:00+25n349171 0.1 1011210
10:00+29nnw337325 0.0 1011918
13:00+32nnw2162100 0.2 10081414
16:00+30s2370100 1.7 1007599
19:00+25s3790100 6.4 1010175
22:00+26ne1184100 4.1 101224
9 october, sun
sun901:00+25wsw1190100 4.2 101023
04:00+24ene2395100 0.0 101087
07:00+24nne2395100 0.0 1011171
10:00+27n348392 0.0 1012649
13:00+29nnw2375100 2.7 1009700
16:00+26ssw2386100 8.4 100951
19:00+24sw2394100 9.9 101173
22:00+24nnw1193100 2.5 101214
10 october, mon
mon1001:00+24nnw1193100 2.7 101113
04:00+24nne1193100 0.0 101017
07:00+24n2293100 0.0 1012135
10:00+28nne117695 0.0 1012771
13:00+30ssw116690 1.1 10091171
16:00+27sse3585100 2.1 1009173
19:00+25sse249084 3.3 101185
22:00+24sse2291100 2.5 101239